OBJECT C, 67676

Orbit data source: Space-Track

You're viewing an Uncataloged Satellite

Recently launched and/or uncataloged satellites may have evolving metadata. Metadata may include but not limited to: Owner, Maufacturer, Bus, Motor, and Mission.

OBJECT C, 67676 is a satellite owned by VVKO VKS (CIS) in SSO that was launched on Thu, 05 Feb 2026 UTC via a SOYUZ-2-1B launch vehicle from the Plesetsk Missile And Space Complex (PKMTR). Unknown objects in Earth's orbit typically refer to objects detected orbiting the Earth but have not yet been identified or cataloged. These objects could be anything from previously untracked satellites, spent rocket stages, debris from satellite collisions, or even natural meteoroids temporarily captured by Earth's gravity.

Loading next visibility...
Identifier
67676, 2026-023C
Orbit
SSO
Country
Flag of CISCIS
Related business
Manufacturer
Unknown (RU)
Mission
Spacecraft
Bus & Motor
UNK, Unknown motor
Mass
~500 kg wet, ~500 kg dry
Launch date (UTC)
2026-02-05 (1 month ago)
Launch vehicle
SOYUZ-2-1B
Launch site
Plesetsk Missile And Space Complex (PKMTR)
Object type
Unknown
Shape & HBR
Unknown
Radar Cross Section
RCS unknown

Expand to show TLE details & history
Last TLE update: 14 hours ago

TLE from 14 hours ago
0 OBJECT C
1 67676U 26023C   26071.74060817  .00008774  00000-0  37158-3 0  9997
2 67676  96.6388 144.3634 0020604 112.6875 247.6545 15.23163660  5484
Epoch: 2026-03-12T17:46Z
TLE epoch observation values (Epoch: 2026-03-12T17:46:28.545Z)
Latitude
-0.00004°
Longitude
67.35831°
Altitude
504.832 km
Speed
7.609 km/s
True Right ascension
09h 37m 27s
True Declination
0° 00' 00"
Sunlit
Object was in full shadow at epoch
Visualization orbit readout
Latitude
Unknown
Longitude
Unknown
Altitude
Unknown
Speed
Unknown
Apparent Right ascension
Unknown
Apparent Declination
Unknown
Sunlit
N/A
Visualization observer readout
Local Sidereal Time
12:15:27
Azimuth
Unknown
Elevation
Unknown
Doppler factor
Unknown
Orbital elements
Apogee altitude
507.393 km
Perigee altitude
479.078 km
Semi-major axis
6,871.373 km
Eccentricity
0.00206
Inclination
96.6388°
RAAN
144.3634°
Arg. of periapsis
112.6875°
True anomaly
247.43634°
Mean anomaly
247.6545°
Eccentric anomaly
247.5454°
Mean motion
3.81046 °/min
Orbital period
94.48 mins
BSTAR
0.00037158
Loading maneuver chart data...
Computing Atmospheric mass density...
Loading historical data...
Loading historical data...
Loading historical data...
Loading historical data...
Loading historical data...
Loading historical data...
Loading historical data...

Documentation

Showing up to 5 results
|